Location: Saint-Palais-sur-Mer
(45.6429°N, 1.0859°W)
Time: 21:19:31
(UTC+02:00)

YUBILEINY - Visible Passes

Search period start: 22 April 2024 00:00
Search period end: 02 May 2024 00:00
Orbit: 1479 x 1508 km, 82.5° (Epoch: 22 April)

Date Brightness Start Highest point End Pass type
(mag) Time Alt. Az. Time Alt. Az. Time Alt. Az.
22 Apr ? 05:52:28 10° N 05:59:28 25° ENE 06:06:22 10° ESE visible
22 Apr ? 22:53:00 10° W 22:58:48 19° NW 23:04:39 10° NNW visible
23 Apr ? 05:04:12 10° NNE 05:08:39 14° NE 05:13:03 10° E visible
23 Apr ? 22:00:32 10° SW 22:08:12 32° WNW 22:15:56 10° N visible
24 Apr ? 06:09:34 10° N 06:17:34 37° ENE 06:25:27 10° SE visible
24 Apr ? 23:13:58 10° WNW 23:17:20 12° NW 23:20:42 10° NNW visible
25 Apr ? 05:20:40 10° N 05:27:05 22° ENE 05:33:25 10° ESE visible
25 Apr ? 22:19:53 10° WSW 22:26:23 22° WNW 22:32:55 10° N visible
26 Apr ? 04:33:02 10° NNE 04:36:06 12° NE 04:39:10 10° ENE visible
26 Apr ? 06:26:53 10° N 06:35:28 53° ENE 06:43:55 10° SSE visible
26 Apr ? 21:27:54 10° SW 21:35:55 37° WNW 21:43:59 10° N visible
27 Apr ? 05:37:40 10° N 05:45:16 31° ENE 05:52:47 10° SE visible
27 Apr ? 22:40:12 10° W 22:44:48 15° NW 22:49:25 10° NNW visible
28 Apr ? 04:48:57 10° NNE 04:54:38 18° NE 05:00:16 10° E visible
28 Apr ? 21:46:57 10° WSW 21:54:00 26° WNW 22:01:06 10° N visible
29 Apr ? 05:54:53 10° N 06:03:15 45° ENE 06:11:30 10° SE visible
30 Apr ? 05:05:46 10° N 05:12:56 27° ENE 05:19:59 10° ESE visible
30 Apr ? 22:06:47 10° W 22:12:19 18° NW 22:17:52 10° NNW visible
01 May ? 04:17:23 10° NNE 04:22:09 15° NE 04:26:54 10° E visible
01 May ? 06:12:16 10° N 06:21:02 65° ENE 06:29:40 10° SSE visible
